Regional Weather Roundup
Issued by NWS

Home | Current Version | Previous Version | Text Only | Print | Product List | Glossary On
Versions: 1 2 3 4 5 6 7 8 9 10 11 12 13 14 15 16 17 18 19 20 21 22 23 24 25 26 27 28 29 30 31 32 33 34 35 36 37 38 39 40 41 42 43 44 45 46 47 48 49 50
000
ASUS43 KIND 230059
RWRIN

WEATHER ROUNDUP FOR INDIANA
NATIONAL WEATHER SERVICE INDIANAPOLIS IN
900 PM EDT MON SEP 22 2014

NOTE: "FAIR" INDICATES FEW OR NO CLOUDS BELOW 12,000 FEET WITH NO
SIGNIFICANT WEATHER AND/OR OBSTRUCTIONS TO VISIBILITY.

* - STATION DOES NOT REPORT WEATHER SUCH AS PRECIPITATION OR FOG.

+ - STATION NOT QUALITY CONTROLLED BY THE NATIONAL WEATHER SERVICE.
    USE DATA WITH CAUTION...ESPECIALLY DEWPOINT AND RELATIVE
    HUMIDITY OBSERVATIONS.

INZ001>003-010>013-019-020-230200-
NORTHWEST INDIANA

CITY           SKY/WX    TMP DP  RH WIND       PRES   REMARKS
GARY /AIRPORT/ CLEAR     50  48  93 VRB5      30.26R
KNOX *+        CLEAR     49  46  87 SE3       30.25S
MONTICELLO +   CLEAR     51  47  88 N5        30.25R
VALPARAISO     CLEAR     51  44  77 CALM      30.27R

$$

LMZ046-743>745-230200-
SOUTHERN LAKE MICHIGAN

STATION/POSITION TIME  TEMP WIND        PRES
                       AIR  DIR/SP/G
                 (UTC) (F)  (DEG/KT/KT) (MB)

$$

INZ004-005-014>016-021>024-230200-
NORTH CENTRAL INDIANA

CITY           SKY/WX    TMP DP  RH WIND       PRES   REMARKS
ELKHART        PTCLDY    52  46  82 CALM      30.27R
GOSHEN         CLEAR    N/A N/A N/A NW5       30.26R
SOUTH BEND     CLEAR     51  45  79 CALM      30.27R
WARSAW +       CLEAR     54  45  71 NW3       30.26R

$$

INZ006>009-017-018-025>027-230200-
NORTHEAST INDIANA

CITY           SKY/WX    TMP DP  RH WIND       PRES   REMARKS
ANGOLA *+      CLEAR     54  46  76 NW5       30.25R
FORT WAYNE     CLEAR     52  46  80 CALM      30.25R

$$

INZ028-029-035-036-043>045-051>053-230200-
WEST CENTRAL INDIANA

CITY           SKY/WX    TMP DP  RH WIND       PRES   REMARKS
GREENCASTLE +  CLEAR     52  46  82 CALM      30.26R
LAFAYETTE      CLEAR     53  47  79 N6        30.25R
TERRE HAUTE    CLEAR     52  48  86 CALM      30.25R

$$

INZ030>032-037>040-046>048-054>057-064-065-230200-
CENTRAL INDIANA

CITY           SKY/WX    TMP DP  RH WIND       PRES   REMARKS
FRANKFORT +    CLEAR     50  47  89 CALM      30.26S
INDIANAPOLIS   CLEAR     59  43  55 N3        30.24R
-EAGLE CREEK   CLEAR     57  48  72 CALM      30.24R
KOKOMO *+      CLEAR     52  46  82 CALM      30.25R
MT COMFORT *+  CLEAR     50  46  87 CALM      30.25R
SHELBYVILLE    CLEAR     52  45  77 CALM      30.24R

$$

INZ033-034-041-042-049-050-058-059-230200-
EAST CENTRAL INDIANA

CITY           SKY/WX    TMP DP  RH WIND       PRES   REMARKS
MUNCIE         CLEAR     51  45  79 CALM      30.25R

$$

INZ060-061-067>069-081>083-085>088-230200-
SOUTHWEST INDIANA

CITY           SKY/WX    TMP DP  RH WIND       PRES   REMARKS
EVANSVILLE     CLEAR     60  49  66 CALM      30.24R

$$

INZ062-063-066-070>080-084-089>092-230200-
SOUTH CENTRAL AND SOUTHEAST INDIANA

CITY           SKY/WX    TMP DP  RH WIND       PRES   REMARKS
BLOOMINGTON    CLEAR     49  47  93 CALM      30.25R

$$




USA.gov is the U.S. government's official web portal to all federal, state and local government web resources and services.